TimeCDT,TemperatureF,Dew PointF,Humidity,Sea Level PressureIn,VisibilityMPH,Wind Direction,Wind SpeedMPH,Gust SpeedMPH,PrecipitationIn,Events,Conditions,WindDirDegrees,DateUTC
12:15 AM,53.6,53.6,100,30.11,10.0,SE,15.0,19.6,N/A,,Overcast,140,2013-05-26 05:15:00
12:35 AM,53.6,53.6,100,30.10,10.0,SSE,21.9,26.5,N/A,,Overcast,150,2013-05-26 05:35:00
12:55 AM,51.8,51.8,100,30.11,9.0,SSE,19.6,25.3,N/A,,Overcast,150,2013-05-26 05:55:00
1:15 AM,51.8,51.8,100,30.11,10.0,SSE,23.0,27.6,N/A,,Overcast,160,2013-05-26 06:15:00
1:35 AM,51.8,51.8,100,30.11,10.0,SSE,17.3,28.8,N/A,,Overcast,150,2013-05-26 06:35:00
1:55 AM,51.8,51.8,100,30.09,10.0,SE,17.3,-,N/A,,Overcast,140,2013-05-26 06:55:00
2:15 AM,51.8,51.8,100,30.07,10.0,SE,17.3,25.3,N/A,,Overcast,130,2013-05-26 07:15:00
2:35 AM,50.0,50.0,100,30.07,10.0,SE,17.3,-,N/A,,Overcast,140,2013-05-26 07:35:00
2:55 AM,50.0,50.0,100,30.07,10.0,ESE,16.1,-,N/A,,Overcast,120,2013-05-26 07:55:00
3:15 AM,50.0,50.0,100,30.08,7.0,SE,16.1,-,N/A,,Overcast,140,2013-05-26 08:15:00
3:35 AM,50.0,50.0,100,30.09,8.0,SE,20.7,27.6,N/A,,Overcast,140,2013-05-26 08:35:00
3:55 AM,50.0,50.0,100,30.07,10.0,SE,20.7,26.5,N/A,,Overcast,140,2013-05-26 08:55:00
4:15 AM,50.0,50.0,100,30.06,10.0,SE,25.3,32.2,N/A,,Overcast,140,2013-05-26 09:15:00
4:35 AM,50.0,50.0,100,30.05,10.0,SE,26.5,31.1,N/A,,Overcast,140,2013-05-26 09:35:00
4:55 AM,50.0,50.0,100,30.06,10.0,SE,24.2,31.1,N/A,,Overcast,140,2013-05-26 09:55:00
5:15 AM,50.0,50.0,100,30.06,10.0,SE,24.2,32.2,N/A,,Overcast,140,2013-05-26 10:15:00
5:35 AM,50.0,50.0,100,30.06,10.0,SE,19.6,27.6,N/A,,Overcast,140,2013-05-26 10:35:00
5:55 AM,50.0,50.0,100,30.07,10.0,SE,23.0,29.9,N/A,,Overcast,140,2013-05-26 10:55:00
6:15 AM,50.0,50.0,100,30.09,10.0,SSE,17.3,26.5,N/A,,Overcast,150,2013-05-26 11:15:00
6:35 AM,50.0,50.0,100,30.09,10.0,SE,17.3,21.9,N/A,,Overcast,140,2013-05-26 11:35:00
6:55 AM,50.0,50.0,100,30.08,10.0,SE,16.1,24.2,N/A,,Overcast,130,2013-05-26 11:55:00
7:15 AM,50.0,50.0,100,30.08,10.0,SE,18.4,23.0,N/A,,Overcast,140,2013-05-26 12:15:00
7:35 AM,50.0,50.0,100,30.08,10.0,SE,17.3,24.2,N/A,,Overcast,130,2013-05-26 12:35:00
7:55 AM,50.0,50.0,100,30.08,10.0,SSE,20.7,-,N/A,,Overcast,150,2013-05-26 12:55:00
8:15 AM,50.0,50.0,100,30.07,10.0,SE,18.4,25.3,N/A,,Overcast,140,2013-05-26 13:15:00
8:35 AM,50.0,50.0,100,30.07,10.0,SE,20.7,27.6,N/A,,Overcast,130,2013-05-26 13:35:00
8:55 AM,50.0,50.0,100,30.06,10.0,ESE,21.9,-,N/A,,Overcast,120,2013-05-26 13:55:00
9:15 AM,50.0,50.0,100,30.07,10.0,SE,18.4,25.3,N/A,,Overcast,140,2013-05-26 14:15:00
9:35 AM,51.8,50.0,94,30.08,10.0,SE,23.0,26.5,N/A,,Overcast,140,2013-05-26 14:35:00
9:55 AM,51.8,50.0,94,30.05,10.0,SE,24.2,28.8,N/A,,Overcast,130,2013-05-26 14:55:00
10:15 AM,51.8,50.0,94,30.07,10.0,SSE,20.7,26.5,N/A,,Overcast,150,2013-05-26 15:15:00
10:35 AM,50.0,50.0,100,30.07,10.0,SSE,21.9,26.5,N/A,,Overcast,150,2013-05-26 15:35:00
10:55 AM,50.0,50.0,100,30.05,9.0,SSE,19.6,25.3,N/A,,Overcast,150,2013-05-26 15:55:00
11:15 AM,51.8,50.0,94,30.03,9.0,ESE,20.7,25.3,N/A,,Overcast,120,2013-05-26 16:15:00
11:35 AM,53.6,50.0,88,30.02,9.0,ESE,24.2,28.8,N/A,,Overcast,120,2013-05-26 16:35:00
11:55 AM,53.6,50.0,88,30.03,9.0,SE,21.9,27.6,N/A,,Overcast,130,2013-05-26 16:55:00
12:15 PM,53.6,50.0,88,30.06,10.0,SE,23.0,27.6,N/A,,Overcast,140,2013-05-26 17:15:00
12:35 PM,53.6,50.0,88,30.06,10.0,SE,23.0,-,N/A,,Overcast,140,2013-05-26 17:35:00
12:55 PM,55.4,50.0,82,30.05,10.0,SE,19.6,25.3,N/A,,Overcast,140,2013-05-26 17:55:00
1:15 PM,55.4,50.0,82,30.06,10.0,SE,23.0,28.8,N/A,,Overcast,140,2013-05-26 18:15:00
1:35 PM,55.4,50.0,82,30.07,10.0,SE,20.7,28.8,N/A,,Overcast,140,2013-05-26 18:35:00
1:55 PM,57.2,50.0,77,30.06,10.0,SE,20.7,27.6,N/A,,Overcast,140,2013-05-26 18:55:00
2:15 PM,57.2,50.0,77,30.06,10.0,SSE,19.6,-,N/A,,Overcast,150,2013-05-26 19:15:00
2:35 PM,55.4,50.0,82,30.06,10.0,SE,20.7,-,N/A,,Overcast,140,2013-05-26 19:35:00
2:55 PM,55.4,50.0,82,30.06,10.0,SSE,16.1,-,N/A,,Overcast,150,2013-05-26 19:55:00
3:15 PM,57.2,50.0,77,30.05,10.0,SSE,19.6,25.3,N/A,,Mostly Cloudy,150,2013-05-26 20:15:00
3:35 PM,59.0,51.8,77,30.05,10.0,SSE,19.6,25.3,N/A,,Mostly Cloudy,150,2013-05-26 20:35:00
3:55 PM,59.0,51.8,77,30.05,10.0,SE,18.4,24.2,N/A,,Mostly Cloudy,140,2013-05-26 20:55:00
4:15 PM,59.0,51.8,77,30.05,10.0,SE,19.6,23.0,N/A,,Mostly Cloudy,140,2013-05-26 21:15:00
4:35 PM,57.2,51.8,82,30.05,10.0,SSE,17.3,-,N/A,,Overcast,150,2013-05-26 21:35:00
4:55 PM,57.2,51.8,82,30.04,10.0,SSE,18.4,21.9,N/A,,Overcast,150,2013-05-26 21:55:00
5:15 PM,57.2,51.8,82,30.04,10.0,SSE,19.6,24.2,N/A,,Overcast,150,2013-05-26 22:15:00
5:35 PM,57.2,51.8,82,30.04,10.0,SE,18.4,23.0,N/A,,Overcast,140,2013-05-26 22:35:00
5:55 PM,57.2,51.8,82,30.04,10.0,SSE,17.3,23.0,N/A,,Overcast,150,2013-05-26 22:55:00
6:15 PM,59.0,53.6,82,30.03,10.0,SE,18.4,-,N/A,,Mostly Cloudy,130,2013-05-26 23:15:00
6:35 PM,59.0,53.6,82,30.03,10.0,SSE,19.6,24.2,N/A,,Mostly Cloudy,150,2013-05-26 23:35:00
6:55 PM,59.0,53.6,82,30.03,10.0,SE,19.6,23.0,N/A,,Mostly Cloudy,140,2013-05-26 23:55:00
7:15 PM,59.0,53.6,82,30.03,10.0,SE,16.1,-,N/A,,Mostly Cloudy,140,2013-05-27 00:15:00
7:35 PM,59.0,51.8,77,30.02,10.0,SE,16.1,-,N/A,,Mostly Cloudy,140,2013-05-27 00:35:00
7:55 PM,57.2,51.8,82,30.03,10.0,SE,13.8,19.6,N/A,,Overcast,140,2013-05-27 00:55:00
8:15 PM,57.2,51.8,82,30.03,10.0,SE,13.8,-,N/A,,Overcast,140,2013-05-27 01:15:00
8:35 PM,57.2,51.8,82,30.03,10.0,SSE,13.8,-,N/A,,Overcast,150,2013-05-27 01:35:00
8:55 PM,57.2,50.0,77,30.03,10.0,SSE,18.4,21.9,N/A,,Overcast,150,2013-05-27 01:55:00
9:15 PM,57.2,50.0,77,30.03,10.0,SSE,13.8,-,N/A,,Overcast,150,2013-05-27 02:15:00
9:35 PM,55.4,50.0,82,30.02,10.0,SE,17.3,23.0,N/A,,Overcast,140,2013-05-27 02:35:00
9:55 PM,55.4,50.0,82,30.02,10.0,SE,15.0,-,N/A,,Overcast,140,2013-05-27 02:55:00
10:15 PM,55.4,48.2,77,30.02,10.0,SE,12.7,-,N/A,,Overcast,140,2013-05-27 03:15:00
10:35 PM,55.4,48.2,77,30.01,10.0,SE,16.1,20.7,N/A,,Overcast,140,2013-05-27 03:35:00
10:55 PM,53.6,48.2,82,30.01,10.0,SE,12.7,-,N/A,,Mostly Cloudy,140,2013-05-27 03:55:00
11:15 PM,53.6,48.2,82,30.00,10.0,SE,12.7,17.3,N/A,,Mostly Cloudy,140,2013-05-27 04:15:00
11:35 PM,51.8,48.2,88,29.99,10.0,SE,9.2,-,N/A,,Partly Cloudy,140,2013-05-27 04:35:00
11:55 PM,51.8,48.2,88,29.98,10.0,SE,9.2,-,N/A,,Mostly Cloudy,130,2013-05-27 04:55:00